Regional Weather Roundup
Issued by NWS

Home | Current Version | Previous Version | Text Only | Print | Product List | Glossary Off
Versions: 1 2 3 4 5 6 7 8 9 10 11 12 13 14 15 16 17 18 19 20 21 22 23 24 25 26 27 28 29 30 31 32 33 34 35 36 37 38 39 40 41 42 43 44 45 46 47 48 49 50

000
ASUS43 KOAX 271402
RWRNE

WEATHER ROUNDUP FOR NEBRASKA
NATIONAL WEATHER SERVICE OMAHA NE
800 AM CST THU NOV 27 2014

NOTES: SATELLITE DATA IS BEING USED TO AUGMENT CLOUD COVER ABOVE
       12000 FEET.
       "FAIR" INDICATES FEW OR NO CLOUDS BELOW 12,000 FEET WITH NO
       SIGNIFICANT WEATHER AND/OR OBSTRUCTIONS TO VISIBILITY.

  * THESE STATIONS DO NOT REPORT WEATHER SUCH AS RAIN...SNOW OR FOG.

NEZ001>004-019>022-054>056-271500-
NEBRASKA PANHANDLE

CITY           SKY/WX    TMP DP  RH WIND       PRES   REMARKS
SCOTTSBLUFF    MOCLDY    12   9  87 CALM      30.14F
ALLIANCE       PTCLDY    15  13  91 S7        30.13F WCI   5
CHADRON        PTCLDY   N/A N/A N/A CALM      30.12F
SIDNEY         PTCLDY    27  23  85 SW9       30.16F WCI  18
$$

NEZ057>060-069>072-079>082-271500-
SOUTHWEST NEBRASKA

CITY           SKY/WX    TMP DP  RH WIND       PRES   REMARKS
NORTH PLATTE   PTCLDY    18  14  84 E8        30.27F WCI   8
IMPERIAL       CLEAR     19  15  84 S6        30.22F WCI  11
LEXINGTON      PTCLDY    22  18  84 SE9       30.35R WCI  11
MCCOOK         CLEAR     17  14  88 SE7       30.31F WCI   8
$$

NEZ005>010-023>029-035>040-094-271500-
NORTH CENTRAL NEBRASKA

CITY           SKY/WX    TMP DP  RH WIND       PRES   REMARKS
VALENTINE      CLOUDY    22  16  78 E13       30.25F WCI  10
AINSWORTH      CLOUDY    20  15  80 SE12      30.29R WCI   8
BROKEN BOW     CLEAR     18  13  80 E8        30.34S WCI   8
ORD            CLOUDY    18  11  74 SE9       30.39F WCI   7
$$

NEZ041-046>049-061>064-073>077-083>087-271500-
SOUTH CENTRAL NEBRASKA

CITY           SKY/WX    TMP DP  RH WIND       PRES   REMARKS
GRAND ISLAND   MOCLDY    17  12  80 E5        30.46R WCI  10
AURORA         MOCLDY    17  10  76 CALM      30.46R
HASTINGS       PTCLDY    17  12  80 S6        30.42S WCI   9
KEARNEY *      PTCLDY    16  10  79 SE7       30.39F WCI   6
YORK           CLOUDY    18  10  73 SE5       30.47S WCI  11
$$

NEZ011>018-030>034-042>045-271500-
NORTHEAST NEBRASKA

CITY           SKY/WX    TMP DP  RH WIND       PRES   REMARKS
NORFOLK        CLOUDY    16   9  74 SE6       30.45F WCI   7
COLUMBUS *     CLOUDY    18   7  62 E6        30.49S WCI   9
TEKAMAH        MOCLDY    12   0  58 N6        30.54R WCI   3
$$

NEZ050>053-065>068-078-088>093-271500-
SOUTHEAST NEBRASKA

CITY           SKY/WX    TMP DP  RH WIND       PRES   REMARKS
LINCOLN        CLOUDY    18  11  74 NE5       30.53R WCI  11
OMAHA EPPLEY   MOCLDY    16   8  71 NE5       30.54R WCI   9
FALLS CITY     CLOUDY    20  13  74 E3        30.51S
NEBRASKA CITY  CLOUDY    18  10  72 NE6       30.51R WCI   9
PLATTSMOUTH    CLOUDY    17  11  76 NE5       30.51R WCI  10
$$

NEZ044-045-051>053-067-271500-
OMAHA AREA

CITY           SKY/WX    TMP DP  RH WIND       PRES   REMARKS
OMAHA EPPLEY   MOCLDY    16   8  71 NE5       30.54R WCI   9
OFFUTT AFB     CLOUDY    17  10  74 NE8       30.52R WCI   7
PLATTSMOUTH    CLOUDY    17  11  76 NE5       30.51R WCI  10
WAHOO          CLOUDY    18  11  75 N6        30.51S WCI   9
$$


USA.gov is the U.S. government's official web portal to all federal, state and local government web resources and services.